Location: Unspecified
(35.6961°N, 0.0000°E)
Time: 17:07:20
(UTC+00:00)

Altair - Pass Details

Date: 20 May 2019
Orbit: 1501 x 1683 km, 47.2° (Epoch: 19 June)

Event Time Altitude Azimuth Distance (km) Brightness Sun altitude
Rises 12:52:42 0° 297° (WNW) 4,864 10.2 70.0°
Reaches altitude 10° 12:56:26 10° 287° (WNW) 3,847 9.9 69.5°
Maximum altitude 13:04:13 28° 233° (SW) 2,639 9.7 68.4°
Drops below altitude 10° 13:11:47 10° 179° (S) 3,718 9.9 67.2°
Sets 13:15:22 0° 168° (SSE) 4,673 10.2 66.6°
